RH
85 77 76 55 51 39 37 29 30 39 32 39 39 10 5 5 3 3 4 6 6 7 8 8 12 12 10 14 16 19 24 27 29 35 36 36 34 29 30 32 34 36 35 37
88 72 74 62 53 41 34 33 27 36 36 42 44 24 5 6 3 3 4 5 7 8 9 10 16 14 15 14 15 18 23 28 30 38 38 43 43 47 33 30 28 32 32 59
78 81 74 69 56 44 32 32 25 29 39 48 44 32 7 6 4 3 4 5 7 9 10 11 13 22 20 19 19 18 20 18 22 23 25 25 32 32 29 23 24 30 29 37
80 83 73 72 55 46 34 35 26 27 42 44 43 43 12 6 4 3 3 4 6 9 11 13 14 28 37 32 24 25 23 24 25 24 23 22 21 22 23 23 23 18 24 23
89 85 82 78 56 46 37 38 28 29 33 42 49 49 22 6 6 3 3 4 6 9 11 12 15 16 22 51 54 40 35 34 36 42 41 34 31 30 29 28 20 20 18 21
98 92 90 81 58 56 46 40 31 33 30 44 52 57 39 8 6 4 3 4 6 8 10 13 16 19 19 21 32 56 61 48 38 34 30 34 45 29 31 26 24 23 24 22
95 94 94 69 64 61 49 43 32 35 33 44 48 58 51 12 6 4 3 4 6 7 12 13 14 17 21 24 26 26 30 54 62 55 49 50 41 36 40 43 39 30 31 24
97 100 92 69 68 60 59 48 37 40 36 45 46 59 47 19 8 5 4 4 6 7 10 14 15 15 17 19 25 28 32 34 50 55 59 66 59 52 48 53 32 38 48 33
100 98 77 75 73 61 58 56 44 36 35 46 42 48 58 29 11 6 4 4 6 8 9 13 16 18 20 21 23 29 29 28 28 38 57 61 53 63 65 64 52 50 50 41
98 86 78 77 73 64 52 53 47 40 33 45 46 43 48 41 17 9 6 5 6 8 10 12 15 19 20 23 25 30 33 33 29 34 40 43 60 62 66 69 63 58 56 47
90 84 76 66 72 60 55 54 43 43 32 39 42 45 48 60 33 10 6 5 6 8 10 12 15 18 19 22 26 32 34 33 33 31 28 33 52 57 64 67 70 66 60 52
74 77 76 87 76 62 46 54 38 40 36 33 38 45 38 56 36 21 9 7 7 8 10 11 14 17 20 23 25 28 29 30 31 34 30 32 41 52 66 67 73 78 72 60
64 79 80 91 72 62 48 44 40 42 35 32 34 42 35 47 39 43 32 7 8 9 11 12 14 17 19 20 21 26 28 41 51 57 39 43 39 43 64 68 75 72 84 74
78 93 100 100 80 65 42 44 40 52 32 32 34 36 33 38 46 46 46 16 8 8 11 12 15 17 18 19 22 25 41 46 41 42 46 46 40 36 31 32 54 75 77 88
93 82 100 100 86 67 53 44 43 47 40 44 37 35 36 34 45 51 54 29 12 11 11 13 14 16 18 17 19 21 32 33 44 49 54 57 46 50 51 49 44 50 63 70
78 100 100 95 86 58 55 46 53 42 33 33 35 35 38 33 36 47 60 64 59 10 10 13 14 16 18 16 15 26 31 36 37 41 44 55 48 51 61 62 51 52 64 74
100 100 95 86 75 71 60 45 49 40 36 31 31 29 37 35 40 50 62 64 61 29 11 11 13 15 16 17 21 23 25 28 29 37 40 44 42 55 54 77 71 70 61 60
100 100 95 86 63 65 49 46 42 44 37 25 29 24 33 38 37 49 54 60 60 58 19 11 12 13 16 17 19 21 25 25 25 30 33 41 45 42 44 46 78 76 78 76
100 95 100 89 85 65 37 46 40 31 31 22 26 18 28 33 34 46 56 58 62 55 59 12 12 14 16 16 17 18 20 23 21 22 23 32 37 37 35 40 41 50 63 74
100 100 100 82 94 65 46 47 52 46 37 34 28 22 21 25 30 42 40 61 74 58 56 21 14 15 15 15 16 17 17 18 21 19 19 24 24 26 28 25 21 16 21 40
100 100 99 83 87 69 74 63 66 54 56 40 43 48 28 26 30 33 35 56 57 53 54 42 20 17 15 16 16 16 16 16 18 20 19 20 29 24 17 14 15 21 26 36
100 100 100 97 79 96 92 86 74 62 70 62 56 53 46 36 33 38 32 40 56 47 48 45 16 20 17 15 15 16 15 15 15 17 18 17 22 22 16 16 17 18 16 22
100 100 100 100 97 81 88 86 81 81 76 70 70 70 52 40 41 47 39 43 43 34 38 30 16 17 18 18 16 14 14 14 13 13 15 16 15 18 19 16 18 19 19 20
100 100 100 98 91 81 77 100 91 86 81 82 74 67 54 40 35 47 55 58 43 46 46 69 14 15 16 17 16 14 14 14 12 12 13 15 16 14 17 20 20 19 17 17
100 100 97 98 100 100 100 100 91 93 92 92 77 71 64 40 41 54 57 73 81 60 45 57 16 17 18 16 13 12 13 12 12 12 11 12 14 15 15 20 20 18 15 15
100 96 100 100 100 100 96 94 87 93 100 80 87 69 60 42 48 64 59 60 49 80 52 25 12 13 15 17 14 8 8 10 10 10 11 11 12 14 14 17 22 20 16 13
100 100 100 100 100 100 98 81 87 96 95 82 69 65 45 48 72 61 67 60 68 82 36 14 11 11 11 10 8 8 6 7 8 8 10 10 11 11 13 15 20 21 19 14
Wind_Speed
60 63 65 65 66 66 70 72 79 86 92 100 98 82 79 80 62 58 43 34 29 23 21 17 9 6 5 8 15 20 22 25 26 29 33 37 40 45 48 51 56 61 66 68
59 61 63 65 64 65 69 71 76 84 91 101 103 90 85 80 62 55 49 33 26 22 18 16 11 6 1 3 8 15 18 21 24 28 32 34 38 44 52 56 63 61 63 59
58 60 62 64 63 65 68 71 75 81 92 102 108 103 85 84 66 52 49 35 25 19 14 13 13 8 4 4 7 11 15 22 24 29 32 37 40 48 53 59 55 55 55 65
55 59 61 62 62 64 66 72 76 79 92 98 105 109 88 85 71 47 50 37 25 18 13 9 9 9 8 9 10 12 13 14 16 21 27 31 39 45 46 47 52 55 66 62
53 57 60 61 61 64 65 71 74 81 89 98 105 113 98 85 77 45 48 39 27 19 16 11 9 11 12 12 13 15 17 19 21 22 25 27 28 31 34 41 47 51 59 59
52 57 58 58 60 63 66 71 74 81 84 94 100 112 103 83 80 51 50 40 31 21 16 15 14 13 14 15 15 17 20 22 25 27 28 28 30 31 32 35 39 42 44 58
51 56 57 56 58 61 66 71 74 79 85 92 98 107 114 85 80 64 50 41 33 24 18 17 17 15 17 18 18 19 19 21 24 26 27 30 34 31 31 32 35 33 38 45
51 53 53 55 57 60 66 71 75 80 84 89 96 105 106 93 84 63 56 40 33 28 20 17 18 18 18 19 20 21 21 22 23 26 26 30 33 33 33 34 36 34 39 40
49 50 49 54 58 58 64 70 74 78 82 86 94 93 101 84 82 61 56 43 33 27 23 17 18 20 20 21 21 22 24 24 24 24 25 32 31 28 31 35 38 38 39 38
47 47 49 53 57 60 63 69 73 78 80 85 93 89 92 88 75 62 61 43 33 27 24 19 18 21 23 23 23 25 25 25 23 25 27 26 28 30 30 29 31 33 36 37
44 47 52 55 60 62 65 70 72 77 79 83 89 94 87 95 79 59 53 49 35 29 24 22 18 20 24 25 24 24 26 26 25 27 27 24 27 28 30 30 30 28 30 32
45 48 54 58 64 66 66 73 73 78 80 83 87 90 85 86 71 57 48 47 39 32 27 24 22 21 22 25 27 26 26 26 27 27 26 24 26 26 25 28 29 30 29 28
45 52 56 64 67 71 73 74 74 79 83 85 87 89 80 81 72 68 57 47 37 33 32 27 23 24 24 26 26 26 24 24 25 27 26 28 30 26 27 28 28 30 28 27
52 52 58 64 71 76 76 78 78 84 83 88 92 87 81 87 77 69 74 51 44 36 30 28 24 25 27 28 26 25 26 29 28 29 26 30 31 32 33 32 29 28 30 29
55 53 50 63 76 80 80 80 83 87 90 95 95 90 91 90 85 80 78 58 46 39 36 31 26 25 28 28 28 26 28 27 27 29 28 31 33 32 32 33 32 32 30 28
54 54 61 70 77 77 81 84 86 89 91 94 97 96 99 88 83 94 84 73 71 43 38 34 31 27 29 31 28 26 32 32 32 31 31 32 35 34 33 36 35 33 33 32
47 57 66 73 78 80 85 84 89 92 94 96 95 99 98 95 92 101 102 84 78 48 43 36 33 31 31 33 32 31 33 36 33 33 34 36 34 38 38 37 39 36 36 35
58 67 75 78 83 87 88 89 92 95 97 96 98 99 102 99 93 98 99 90 78 75 51 40 35 32 30 32 33 33 34 37 37 37 36 38 40 40 43 40 43 42 41 40
67 62 69 77 85 91 91 94 95 97 98 98 101 98 102 96 103 96 98 89 84 80 87 50 39 32 31 31 33 34 35 37 37 38 35 37 41 43 43 45 47 47 48 47
62 65 78 83 88 94 95 97 101 103 104 106 105 102 90 83 84 91 79 91 95 75 84 59 48 36 34 34 33 35 37 38 39 39 36 37 40 41 52 53 54 51 51 53
66 74 82 85 92 96 97 101 103 105 107 109 110 112 101 97 94 78 67 84 79 68 81 67 51 45 38 35 35 36 36 37 39 40 38 35 39 46 54 49 44 43 41 46
76 77 87 91 94 94 99 103 105 106 108 112 113 115 115 110 108 97 71 82 82 69 74 78 50 45 44 43 39 37 37 38 38 40 39 36 37 44 49 46 43 44 43 43
79 84 89 93 95 95 100 101 104 108 109 112 114 118 117 116 111 111 96 97 82 75 65 80 56 48 42 43 45 42 39 39 39 37 38 36 37 38 42 42 42 42 41 46
76 84 91 97 99 100 98 102 109 109 112 114 118 118 122 113 117 112 114 111 97 94 75 101 60 49 44 44 45 46 44 42 42 41 39 37 36 38 36 42 40 42 43 41
90 96 97 95 93 98 100 106 109 110 112 117 121 121 128 121 115 115 114 119 116 95 83 90 64 54 52 53 52 47 46 47 45 44 43 40 37 39 36 36 38 39 41 40
96 97 93 96 100 103 105 110 113 114 119 120 121 121 124 118 117 119 108 111 108 115 95 76 61 50 51 53 61 63 52 46 47 46 44 42 41 39 39 36 36 38 40 41
97 94 94 99 103 104 110 112 114 118 120 118 122 121 117 117 128 119 116 105 105 114 88 71 63 56 51 54 58 61 59 50 44 45 44 41 42 40 39 38 37 38 38 40
Wind_Direction
315 315 319 325 330 334 335 341 348 352 354 353 359 8 356 358 353 345 352 350 345 349 350 355 20 32 131 186 187 185 195 205 207 211 217 220 222 224 224 227 227 227 227 230
312 314 318 323 328 333 334 342 346 352 355 354 356 1 358 357 357 344 345 350 345 339 341 341 343 356 11 212 205 201 196 203 207 217 218 218 222 224 223 223 225 224 224 224
310 312 317 322 327 331 334 342 348 352 356 356 357 0 359 355 1 345 339 346 342 333 327 329 323 315 299 246 221 217 206 214 213 215 220 223 225 228 228 228 229 229 226 224
307 311 316 321 325 329 335 341 347 353 356 358 357 355 1 355 360 349 338 340 339 329 310 306 297 282 279 267 251 238 231 232 235 231 229 228 228 233 237 236 235 233 232 228
306 309 315 320 324 329 335 340 346 352 358 359 358 354 359 354 356 349 339 334 332 325 305 285 277 263 246 242 243 245 242 238 234 237 240 241 241 239 234 234 233 231 236 235
304 307 314 318 323 329 335 340 347 351 356 359 358 352 355 355 355 356 344 333 329 321 310 288 271 266 259 247 237 234 239 239 239 238 239 238 240 237 237 236 236 233 232 235
301 307 311 316 322 329 334 340 347 351 354 -0 360 354 351 355 353 354 347 333 329 320 306 297 271 261 260 256 253 250 243 241 242 243 241 242 247 246 246 247 245 240 241 241
303 305 310 315 322 329 334 341 346 350 353 359 359 356 355 355 351 355 351 335 328 319 306 293 276 266 260 259 254 252 250 249 249 250 244 242 245 248 248 248 251 250 248 248
301 303 310 316 321 328 335 342 344 348 351 356 358 359 357 352 351 353 353 337 331 323 311 296 285 271 265 261 261 257 256 254 252 254 252 248 250 246 245 245 249 250 250 251
296 304 308 314 321 327 335 340 342 345 348 354 358 359 359 353 351 351 349 340 335 328 315 300 287 277 271 265 262 261 259 256 255 256 255 258 257 251 246 244 247 247 250 252
297 302 309 315 322 327 335 338 340 344 347 351 355 357 3 5 360 357 355 346 337 333 320 306 288 278 274 269 264 261 261 261 257 254 257 256 258 257 254 251 251 251 250 250
294 309 315 321 322 326 331 334 338 343 344 350 353 357 6 6 11 9 358 350 342 335 327 315 301 287 276 270 264 263 261 262 263 262 261 262 261 259 260 260 257 257 258 253
306 311 317 319 322 324 328 330 337 340 341 346 352 358 3 5 7 9 6 351 347 340 333 322 308 297 287 280 274 269 268 263 259 257 252 250 251 253 251 252 254 254 258 259
308 314 315 311 317 320 325 327 334 336 338 343 347 358 2 2 3 9 9 356 346 342 336 325 312 297 292 286 283 278 268 260 259 261 261 261 260 258 258 254 248 248 248 251
304 309 306 305 313 316 323 326 332 333 335 338 342 351 356 357 3 8 11 5 351 346 337 328 313 298 289 288 284 281 270 266 264 259 258 259 260 257 253 256 260 257 250 247
307 311 303 305 309 317 318 325 329 331 334 336 341 344 353 359 358 359 12 9 5 344 339 332 320 306 290 289 287 282 276 274 268 267 263 260 262 261 258 258 253 248 254 255
301 294 299 307 310 315 317 322 325 327 332 335 339 342 349 352 355 359 1 5 11 359 339 334 324 313 302 292 288 278 275 273 272 268 266 263 259 260 255 254 255 254 252 247
297 299 305 308 312 314 317 321 323 328 331 335 338 341 345 350 351 355 2 1 1 2 347 338 330 319 307 294 286 279 274 272 270 267 262 262 261 258 259 252 252 253 250 250
290 298 291 303 310 311 316 320 323 327 329 334 336 340 344 347 348 353 357 2 357 355 356 341 333 323 308 298 288 281 275 272 271 267 266 263 261 260 255 255 251 245 246 246
289 292 288 301 305 309 314 317 320 324 325 329 332 337 343 349 350 349 353 357 355 360 355 340 330 324 310 304 291 285 280 275 272 270 265 264 258 256 257 250 254 258 247 242
292 288 292 298 303 308 310 314 316 320 323 326 329 331 338 340 344 346 352 357 356 348 354 348 334 325 314 304 295 286 279 274 270 268 266 262 260 257 259 265 266 262 260 253
283 289 292 296 301 305 308 310 314 316 319 321 326 329 332 334 338 343 346 349 352 350 349 350 330 328 316 309 301 291 282 274 270 264 261 261 253 256 263 265 264 258 253 247
283 288 292 294 298 302 304 308 309 313 316 320 321 323 330 333 332 339 343 343 347 345 349 350 335 329 317 305 300 295 285 277 272 266 258 258 254 253 259 261 260 258 251 245
282 283 286 292 295 299 304 305 308 311 314 317 320 324 326 331 329 335 340 339 344 343 349 346 331 325 317 305 298 295 289 280 275 270 261 254 253 255 250 255 256 254 251 244
281 282 287 293 295 299 301 303 306 309 313 314 317 319 324 324 331 331 338 339 343 341 340 342 334 326 320 310 300 295 291 284 276 271 268 256 249 252 251 251 252 251 250 245
279 283 287 289 293 296 298 300 304 306 309 314 315 318 321 324 327 334 339 339 338 342 337 332 329 323 318 306 300 301 298 293 281 274 269 265 256 247 250 248 248 248 245 243
275 281 283 287 291 293 296 299 304 305 310 312 314 319 320 323 325 329 332 335 334 340 331 328 322 320 314 302 294 294 299 297 287 275 271 267 259 252 246 245 246 245 246 244